Regional Weather Roundup
Issued by NWS

Home | Current Version | Previous Version | Text Only | Print | Product List | Glossary Off
Versions: 1 2 3 4 5 6 7 8 9 10 11 12 13 14 15 16 17 18 19 20 21 22 23 24 25 26 27 28 29 30 31 32 33 34 35 36 37 38 39 40 41 42 43 44 45 46 47 48 49 50

000
ASUS44 KMEG 220610
RWRTN
TENNESSEE HOURLY STATE WEATHER ROUNDUP
NATIONAL WEATHER SERVICE MEMPHIS TN
1200 AM CST WED NOV 22 2017

TNZ002-004-019-021-049-052-054-088>092-220700-
WEST TENNESSEE

CITY           SKY/WX    TMP DP  RH WIND       PRES   REMARKS
MEMPHIS INTL   CLEAR     48  39  71 N14       30.16R
NWS MEMPHIS      N/A     48 N/A N/A MISG        N/A
JACKSON        CLEAR     45  36  70 N14       30.17R
DYERSBURG      CLEAR     44  30  57 N13       30.20R
SOMERVILLE     CLEAR     48  39  71 VRB7G14   30.14R
COVINGTON      MOCLDY    45  34  65 N13G23    30.18R
UNION CITY     PTCLDY    41  27  56 N16G23    30.20R
BOLIVAR        CLEAR     46  39  76 N10       30.13R
PARIS          CLOUDY    41  30  65 N12       30.17R
HUNTINGDON     MOCLDY    45  34  65 VRB7G14   30.16R
LEXINGTON      PTCLDY    45  37  76 N9        30.14R
SELMER         CLEAR     43  36  75 N5        30.12R
SAVANNAH       MOCLDY    34  34 100 CALM      30.12S
$$

TNZ008-025-027-028-033-062-065-066-220700-
NORTH MIDDLE TENNESSEE

CITY           SKY/WX    TMP DP  RH WIND       PRES   REMARKS
NASHVILLE      CLEAR     45  34  65 NW8       30.12R
PORTLAND       CLEAR     41  36  81 N8        30.12R
CLARKSVILLE    CLEAR     40  30  67 N13       30.17R WCI  32
SMYRNA         CLEAR     36  34  92 CALM      30.13R
COOKEVILLE     CLEAR     34  34 100 CALM      30.08F
GALLATIN       PTCLDY    45  34  65 NW9       30.14R
CROSSVILLE     CLEAR     43  30  60 W5        30.08S
$$

TNZ061-075-076-078-094-096-097-220700-
SOUTH MIDDLE TENNESSEE

CITY           SKY/WX    TMP DP  RH WIND       PRES   REMARKS
FAYETTEVILLE   CLEAR     45  32  61 CALM      30.08F
TULLAHOMA      CLEAR     39  32  75 CALM      30.09S
WINCHESTER     CLEAR     39  36  87 CALM      30.10S
MCMINNVILLE    PTCLDY    37  34  87 CALM      30.09F
COLUMBIA       PTCLDY    36  34  93 CALM      30.10S
SHELBYVILLE    CLEAR     36  34  93 CALM      30.10S
$$

TNZ017-018-042-046-047-220700-
NORTHEAST TENNESSEE

CITY           SKY/WX    TMP DP  RH WIND       PRES   REMARKS
TRI CITIES     CLOUDY    45  44  97 CALM      30.03S
ELIZABETHTON   CLOUDY    39  37  93 CALM      30.04S
$$

TNZ012-013-036-069-073-074-220700-
CENTRAL EAST TENNESSEE

CITY           SKY/WX    TMP DP  RH WIND       PRES   REMARKS
KNOXVILLE      MOCLDY    49  47  93 S5        30.03F
OAK RIDGE      CLEAR     44  44 100 CALM      30.06S
DOWNTOWN KNOXV MOCLDY    48  46  93 CALM      30.05S
GATLINBURG     CLOUDY    45  43  93 CALM      30.05S
MORRISTOWN     MOCLDY    48  45  87 W3        30.02F
JACKSBORO      PTCLDY    52  30  43 CALM      30.08S
$$

TNZ083-085-099-220700-
SOUTHEAST TENNESSEE

CITY           SKY/WX    TMP DP  RH WIND       PRES   REMARKS
CHATTANOOGA    CLEAR     45  43  93 CALM      30.07S
DAYTON         CLOUDY    46  41  81 CALM      30.06R
$$

SKY/WX REPORTED AS FAIR MEANS FEW OR NO CLOUDS BELOW
12 THOUSAND FEET.





USA.gov is the U.S. government's official web portal to all federal, state and local government web resources and services.